sat.trackr.live / text

‹ back to catalog

STARLINK-4795

NORAD 53856 · 2022-114AQ

PAYLOAD ACTIVE UNKNOWN

§ Identity

Operator
Country
US
Launch date
2022-09-19
Launch site
AFETR
Launch vehicle
Mass (kg)
RCS (m²)

Purposes: comms

External: N2YO · Heavens-Above · Gunter

§ Orbital elements

Epoch: 2026-09-20T21:48:02.897568Z

Period
94.33 min
Inclination
53.1883°
Eccentricity
0.0001230
Mean motion
15.26520684 rev/d
Perigee alt
485.4 km
Apogee alt
487.1 km
Semi-major
6,864.4 km
B*
3.2471e-5
RAAN
77.3320°
Arg perigee
82.9273°
Mean anomaly
277.1867°
Rev number
22,329

§ Raw data

STARLINK-47951 53856U 22114AQ  26263.90836687  .00000514  00000+0  32471-4 0  99932 53856  53.1883  77.3320 0001230  82.9273 277.1867 15.26520684223291

JSON: /api/v1/satellites/53856 · /tle

For live sub-satellite position, see the globe view (requires WebGL).

§ Visibility from observer

Set your observer location to see the next 7 days of passes ≥ 10°. The values pass through the URL so the page stays shareable.

No JS? Fill the form by hand. The geolocation button needs JavaScript.